Location: ????????
(55.0097°N, 38.5678°E)
Time: 13:34:12
(UTC+00:00)

Okean 1 - Visible Passes

Search period start: 12 July 2024 00:00
Search period end: 22 July 2024 00:00
Orbit: 503 x 529 km, 82.5° (Epoch: 12 July)

Date Brightness Start Highest point End Pass type
(mag) Time Alt. Az. Time Alt. Az. Time Alt. Az.
12 Jul 3.6 22:58:42 10° N 23:02:28 61° ENE 23:06:12 10° SSE visible
13 Jul 3.9 22:43:52 10° N 22:47:35 52° ENE 22:51:16 10° SSE visible
14 Jul 4.1 22:29:01 10° N 22:32:40 44° ENE 22:36:17 10° SSE visible
15 Jul 4.7 00:05:16 10° NW 00:08:09 21° W 00:11:00 10° SW visible
15 Jul 4.4 22:14:10 10° N 22:17:44 38° ENE 22:21:16 10° SE visible
15 Jul 4.5 23:50:13 10° NW 23:53:18 24° W 23:56:20 10° SW visible
16 Jul 4.6 21:59:19 10° N 22:02:46 33° ENE 22:06:12 10° SE visible
16 Jul 4.3 23:35:11 10° NNW 23:38:26 28° W 23:41:15 12° SW visible
17 Jul 4.8 21:44:27 10° N 21:47:47 28° ENE 21:51:07 10° SE visible
17 Jul 4.1 23:20:09 10° NNW 23:23:33 32° W 23:26:09 15° SSW visible
18 Jul 5.0 21:29:37 10° N 21:32:48 25° ENE 21:35:58 10° ESE visible
18 Jul 3.9 23:05:08 10° NNW 23:08:39 37° W 23:11:03 17° SSW visible
19 Jul 5.2 21:14:46 10° NNE 21:17:46 22° ENE 21:20:45 10° ESE visible
19 Jul 3.7 22:50:06 10° NNW 22:53:43 44° W 22:55:58 20° SSW visible
20 Jul 5.4 20:59:56 10° NNE 21:02:44 19° ENE 21:05:30 10° ESE visible
20 Jul 3.5 22:35:05 10° NNW 22:38:46 52° W 22:40:54 23° SSW visible
21 Jul 5.5 20:45:07 10° NNE 20:47:40 17° ENE 20:50:11 10° ESE visible
21 Jul 3.3 22:20:03 10° NNW 22:23:48 62° W 22:25:49 25° S visible
